Location: Newark
(34.1333°N, 7.9667°W)
Time: 03:25:56
(UTC+00:00)

ITAMSAT 1 - Pass Details

Date: 24 April 2024
Orbit: 781 x 796 km, 98.8° (Epoch: 27 May)

Event Time Altitude Azimuth Distance (km) Brightness Sun altitude
Exits shadow 19:37:11 - 102° (ESE) 2,637 9.7 -6.0°
Reaches altitude 10° 19:38:28 10° 90° (E) 2,364 9.5 -6.3°
Maximum altitude 19:40:49 13° 63° (ENE) 2,147 9.5 -6.7°
Drops below altitude 10° 19:43:11 10° 36° (NE) 2,369 10.0 -7.2°
Sets 19:46:46 0° 11° (N) 3,303 11.0 -7.9°
